Theta_e
312 310 311 312 309 311 311 312 313 312 312 312 311 310 311 311 310 309 311 312 312 313 314 312 311 310 309 310 310 311 312 312 312 313 321 321 322 322 323 323 322 322 323 324
310 311 311 311 310 311 312 313 312 311 310 310 310 310 309 309 309 311 313 313 313 313 313 312 311 310 310 310 310 311 311 312 313 317 321 321 321 322 322 322 320 321 321 320
312 313 311 311 311 312 311 311 311 313 312 309 310 311 309 309 310 311 312 314 314 314 314 313 311 311 310 310 310 310 312 312 314 319 321 320 322 322 321 320 320 320 318 317
311 311 312 311 312 311 312 310 311 312 314 314 311 315 311 310 309 307 311 312 315 314 313 312 312 311 310 310 309 311 312 313 314 317 318 320 320 320 320 320 319 318 314 311
312 312 312 313 312 311 313 311 311 312 312 311 311 311 313 310 310 310 311 314 315 315 315 314 313 311 311 309 309 312 313 314 316 317 318 319 319 320 319 318 317 314 308 303
310 311 311 312 311 311 309 311 310 309 310 313 312 313 313 311 313 311 312 315 316 316 315 312 310 310 310 308 310 312 314 314 314 317 319 320 319 319 318 317 316 309 303 299
311 311 310 311 312 310 312 313 315 313 312 316 310 311 315 312 311 310 311 317 316 314 313 312 310 309 308 308 310 312 315 314 315 316 317 318 320 319 318 317 315 306 299 296
312 312 310 308 313 313 311 312 314 313 313 312 311 314 314 309 311 312 314 315 313 313 314 313 311 309 308 308 310 313 315 314 315 316 318 318 318 317 316 318 315 303 299 296
312 313 310 309 310 312 311 313 312 314 298 308 312 311 311 309 308 309 312 310 309 312 313 313 311 308 308 308 310 313 315 314 314 315 316 317 316 315 315 314 306 299 296 296
312 313 310 310 311 310 310 309 313 310 311 310 313 313 315 314 311 309 308 309 313 313 312 311 309 307 307 307 310 313 314 314 313 314 314 315 315 313 312 306 299 296 295 295
311 312 311 310 310 311 311 311 311 311 310 312 312 317 309 312 311 311 309 314 314 312 312 311 309 307 307 307 309 312 313 313 313 313 313 314 314 311 305 299 296 295 295 294
310 312 309 311 309 308 310 312 311 313 312 311 312 318 309 311 310 310 312 312 312 311 310 310 309 307 306 306 307 310 312 312 312 312 313 313 312 307 301 296 295 295 294 294
313 315 315 315 313 308 310 311 312 312 309 316 314 318 305 308 309 311 309 311 312 313 312 309 308 307 306 306 305 308 310 311 310 311 312 311 307 302 298 295 294 294 294 294
314 314 314 320 317 312 311 310 310 313 315 315 316 317 314 310 309 309 311 313 312 314 313 311 308 308 307 306 305 305 308 309 309 309 310 308 304 301 297 295 294 294 293 293
315 315 314 314 313 311 311 311 312 313 314 317 317 316 316 314 307 310 315 315 311 311 313 314 313 310 307 306 305 304 305 309 310 309 308 306 302 299 296 294 294 293 293 292
314 313 313 316 314 313 314 311 310 312 314 314 315 316 315 314 315 312 315 316 313 312 313 314 313 311 308 307 306 304 303 305 309 308 306 303 300 298 295 293 293 292 291 291
314 314 316 320 314 314 315 314 315 311 312 313 315 314 314 312 308 312 314 313 312 313 313 313 314 314 312 310 306 306 304 303 305 305 302 301 299 297 294 293 292 291 291 290
311 314 314 319 315 319 316 312 314 315 314 310 311 312 312 312 313 313 312 312 312 312 312 312 313 313 313 311 306 304 303 302 303 302 300 299 298 296 294 293 292 291 290 290
309 311 314 318 319 316 314 308 309 313 315 314 313 313 313 314 313 313 313 313 313 313 312 312 311 311 311 310 307 302 301 300 299 300 299 297 296 295 293 292 291 290 290 290
305 310 311 313 319 320 313 304 305 308 316 301 311 312 312 308 309 312 311 311 310 310 310 311 310 308 307 307 304 300 300 298 298 298 297 296 295 294 293 292 291 290 290 293
306 309 312 314 317 312 307 299 304 313 312 295 304 306 305 304 308 309 309 309 308 309 309 308 307 306 306 304 302 299 298 298 297 296 295 295 294 294 293 291 290 290 289 290
308 310 311 313 314 314 304 301 307 305 299 302 301 303 303 304 304 305 305 307 307 307 306 305 304 303 302 301 299 298 297 296 295 294 294 293 292 292 291 290 289 289 291 290
309 304 307 310 311 300 301 301 302 301 302 301 301 302 302 302 303 304 305 305 305 305 304 304 303 303 302 301 300 299 297 295 293 292 292 291 290 290 290 290 291 294 292 291
302 299 305 307 303 299 299 298 299 299 298 298 296 297 298 302 302 301 304 304 305 304 303 304 303 304 306 304 299 298 300 300 300 299 298 297 297 296 296 295 294 293 292 291
301 300 301 300 300 298 301 302 301 299 298 297 296 296 296 297 299 300 300 301 303 304 305 305 304 304 304 304 303 301 299 297 297 297 297 297 297 297 296 295 295 294 293 292
297 300 302 304 302 304 302 304 304 299 299 300 303 301 298 298 298 298 297 299 300 300 300 300 300 299 299 298 297 294 293 293 293 293 293 293 293 292 291 291 290 290 289 289
Wind_Speed
3 3 7 13 9 4 5 4 6 4 3 4 8 10 14 17 19 23 29 33 37 39 35 33 32 32 31 30 29 27 26 25 26 28 31 31 30 28 26 25 23 20 22 21
4 7 13 3 5 4 1 3 6 6 4 6 9 13 11 8 15 31 37 40 41 41 41 38 37 36 35 32 29 27 26 24 25 28 33 32 30 29 28 25 21 21 21 20
8 5 6 8 4 5 6 7 5 8 4 4 4 8 9 10 26 29 37 41 43 46 47 44 42 41 38 35 32 29 27 24 28 33 33 32 33 32 29 28 25 24 22 21
7 4 6 5 6 9 8 8 7 4 1 5 2 9 6 6 12 8 33 40 48 49 46 44 44 44 42 37 31 29 27 28 27 31 32 33 32 33 32 30 26 26 23 23
8 8 6 6 7 9 6 5 6 2 3 2 3 4 5 2 8 13 23 40 43 42 42 46 45 46 43 36 32 30 29 27 29 33 35 37 38 35 32 31 29 28 27 25
4 2 7 7 3 7 6 5 5 4 2 5 12 11 6 6 13 6 18 34 36 34 34 36 35 38 42 36 33 33 31 30 31 34 34 35 37 37 35 33 32 33 32 29
3 6 4 5 5 3 3 6 3 4 1 8 3 5 15 7 6 10 13 27 24 19 22 27 31 35 41 40 38 34 33 33 34 39 41 41 39 37 34 34 36 38 36 32
10 7 12 8 13 8 9 9 6 8 4 5 1 8 6 10 17 22 26 30 27 15 14 20 26 31 40 41 39 35 36 36 38 38 37 37 38 38 36 37 39 38 35 31
7 7 2 2 4 11 6 9 4 2 2 2 5 7 8 9 9 15 25 18 15 14 17 21 25 29 39 42 40 37 38 37 37 38 39 39 39 39 38 40 40 38 34 30
4 3 1 1 5 4 6 8 3 1 3 5 6 7 9 6 9 11 12 13 20 17 15 18 22 28 37 39 38 38 39 38 38 38 38 37 38 39 41 42 41 37 33 30
4 4 1 3 7 11 3 4 2 4 5 5 3 8 7 9 11 9 8 14 14 14 15 17 20 26 34 37 39 40 42 40 40 40 40 40 40 40 43 43 40 37 33 29
8 3 4 8 2 2 1 6 7 5 5 4 2 18 5 3 4 8 9 7 6 2 5 13 19 23 32 37 39 41 43 42 42 42 42 41 41 43 45 44 41 37 33 30
8 3 1 3 2 3 5 5 15 3 3 16 6 12 3 2 4 5 8 4 1 3 7 11 18 24 30 36 39 42 45 44 44 45 43 44 45 47 48 45 41 38 35 33
16 6 8 10 3 5 7 9 11 17 7 10 19 29 14 5 6 5 8 7 9 10 13 15 18 24 28 34 39 42 46 47 46 47 47 48 49 50 50 47 43 40 37 34
10 7 9 14 7 1 3 8 18 18 30 12 33 19 31 16 9 19 24 27 20 17 18 21 22 25 29 33 38 42 45 49 50 50 51 50 49 50 50 49 46 43 40 37
10 5 7 12 18 13 13 9 16 25 28 24 31 25 14 7 15 9 20 22 25 23 24 27 28 28 30 34 38 42 45 49 51 52 51 50 50 52 51 49 47 45 41 38
9 6 6 16 6 8 8 29 21 11 18 21 22 36 30 18 9 23 33 26 25 29 32 32 33 34 33 35 37 41 45 48 51 52 52 52 52 53 52 50 48 46 42 38
4 14 9 12 4 10 12 4 20 23 24 17 21 26 25 20 28 35 25 25 36 36 35 34 34 34 35 36 35 39 44 48 51 54 54 53 53 53 52 50 48 45 42 39
9 4 4 7 15 7 11 6 7 12 20 26 24 26 33 37 25 37 29 31 29 24 23 26 27 33 36 34 34 35 41 45 49 54 55 55 53 52 51 50 48 46 43 40
8 12 6 4 7 10 10 3 5 7 12 5 20 23 21 4 4 14 5 10 15 23 22 21 20 21 25 26 29 30 36 42 46 52 55 55 52 50 50 49 47 45 43 36
5 6 16 13 9 3 5 5 6 7 8 7 10 10 9 6 10 11 17 19 18 16 14 11 11 12 14 17 20 25 31 35 37 42 47 49 47 48 47 46 46 44 38 38
10 11 6 7 7 7 13 8 7 4 5 6 7 8 9 10 11 13 10 9 9 9 8 5 4 5 7 10 14 19 22 23 27 31 37 41 44 45 45 43 40 35 35 38
3 4 4 8 6 1 16 4 13 7 4 4 4 3 3 5 5 6 4 3 3 3 1 4 4 5 7 7 8 12 16 17 19 22 25 27 29 29 29 35 40 38 35 37
3 2 2 1 4 5 13 12 6 6 4 4 5 4 4 5 5 6 5 4 4 3 3 5 7 8 6 6 7 8 7 9 8 11 14 17 21 26 29 31 32 34 37 40
3 7 6 5 4 3 11 15 15 10 7 5 2 2 4 5 5 6 3 3 4 5 7 7 6 5 5 7 9 9 7 7 8 9 10 12 15 18 20 23 26 29 31 33
7 7 5 5 7 5 3 9 19 19 16 11 7 3 4 5 5 5 3 6 8 9 9 10 11 10 11 13 14 13 10 9 7 7 8 11 13 16 19 22 25 27 28 28
Wind_Direction
125 115 203 212 200 164 152 189 232 240 237 180 229 241 255 247 232 240 241 240 239 242 245 238 236 233 230 230 233 235 235 233 225 214 202 206 210 211 210 201 209 217 214 209
55 229 225 145 175 197 204 230 252 285 239 190 262 258 247 228 234 235 243 245 244 245 244 237 231 230 230 233 235 233 232 230 221 207 203 203 207 208 204 202 208 206 195 190
177 210 166 158 160 170 228 214 232 232 325 238 299 265 239 246 239 247 249 253 256 253 249 240 231 230 229 230 230 229 229 225 217 206 204 204 205 200 198 192 198 196 188 189
236 237 147 170 194 163 243 207 209 239 60 253 45 287 242 237 250 228 249 248 253 252 249 248 237 231 229 229 227 225 224 221 216 204 206 207 206 205 197 192 197 195 185 177
228 179 175 187 195 173 225 141 176 194 200 349 207 271 251 227 261 255 252 253 256 256 255 251 244 235 230 226 224 221 219 217 208 208 208 209 204 201 202 194 194 187 177 175
229 197 175 197 132 163 138 85 54 55 88 261 211 210 214 199 223 246 251 260 263 262 256 251 247 236 226 221 219 217 215 210 207 207 205 205 209 203 197 194 193 185 179 177
137 219 193 159 101 48 139 102 311 324 352 249 6 223 252 284 238 220 247 267 272 271 259 248 240 230 219 216 216 215 209 206 208 210 211 213 206 207 208 208 202 188 183 181
188 263 169 190 197 168 196 164 167 213 212 279 226 239 253 231 256 246 254 264 273 273 265 251 242 232 219 215 216 212 208 205 208 210 209 209 211 207 204 212 202 193 189 185
172 258 217 196 145 162 197 210 177 51 94 350 234 280 282 259 277 263 251 260 271 274 260 255 243 229 218 215 217 214 206 204 211 212 211 210 208 208 207 203 196 193 189 186
222 276 196 191 97 29 161 160 85 2 213 257 267 271 232 257 249 256 262 252 268 267 259 253 243 229 217 217 218 214 211 210 214 214 216 215 211 209 207 200 195 192 189 189
163 150 304 128 215 166 137 186 141 139 163 193 304 262 213 219 217 229 261 262 271 268 262 255 244 231 221 218 218 217 213 212 217 217 218 215 212 209 205 199 195 194 193 192
201 165 197 203 260 266 56 204 164 162 209 238 168 266 180 207 248 201 249 296 288 278 264 253 246 235 224 221 221 219 217 215 220 220 218 216 214 207 203 200 198 196 196 196
159 178 274 320 18 345 214 207 205 162 77 225 164 265 32 336 272 249 259 280 332 318 280 248 238 235 229 226 224 222 220 218 221 220 220 217 211 205 203 201 200 199 199 200
137 181 206 224 194 144 193 199 204 204 220 215 230 250 250 206 240 252 250 261 258 272 265 267 247 237 234 230 228 226 224 221 222 222 222 219 212 207 205 203 203 203 203 204
153 225 219 249 284 199 231 215 201 206 226 206 251 243 256 244 223 234 265 283 261 247 249 257 259 255 237 233 230 229 227 224 222 223 222 219 214 211 209 206 206 206 206 206
176 221 199 255 248 227 238 233 223 221 230 229 252 257 241 177 239 236 253 260 263 259 263 266 260 256 253 240 236 233 230 226 223 221 220 217 214 213 211 210 209 208 208 207
184 186 175 253 182 214 239 234 228 222 230 219 238 246 262 267 230 250 263 269 279 277 276 272 265 266 262 257 241 236 233 229 224 221 218 216 215 213 213 213 212 211 211 211
212 204 196 245 133 228 240 165 217 220 234 214 239 255 258 252 256 266 270 275 276 282 283 277 272 268 268 262 250 238 234 230 226 222 220 217 216 215 214 214 215 213 214 214
195 185 247 224 226 255 286 213 155 177 245 229 227 246 261 270 288 282 279 279 284 288 292 289 284 273 265 260 253 241 233 231 226 223 222 220 217 216 217 217 216 215 216 217
200 214 201 214 240 233 262 182 163 106 251 176 195 230 249 145 257 274 260 293 297 300 293 289 280 269 262 256 247 239 232 232 229 227 224 223 220 220 222 222 219 219 219 231
176 200 216 227 246 267 246 158 169 140 236 171 190 201 163 183 227 264 295 295 293 300 304 295 284 270 261 249 241 234 231 234 235 232 230 228 225 225 226 225 223 222 222 228
179 174 188 210 220 245 180 103 199 217 137 163 186 198 202 237 265 284 297 295 303 313 321 325 309 255 237 230 229 230 233 233 232 232 231 229 226 226 226 225 226 221 229 231
201 188 187 196 203 65 183 237 195 167 150 163 183 220 281 298 299 304 304 314 322 317 350 128 133 150 159 182 205 218 223 226 225 225 228 228 230 232 232 225 236 239 234 236
261 135 258 10 247 213 208 216 194 188 188 205 236 244 252 246 274 304 285 274 264 253 189 178 183 187 183 205 206 202 211 212 208 207 214 221 224 227 230 231 232 233 233 234
187 153 178 256 246 279 242 225 227 220 210 205 198 289 285 267 250 253 256 252 233 223 222 213 206 219 214 190 172 169 190 203 202 204 206 214 222 229 234 237 239 242 246 248
189 183 168 221 206 189 198 222 215 211 203 199 227 263 283 261 234 221 177 140 131 129 132 135 138 142 146 147 152 153 156 162 174 193 211 221 228 233 235 239 243 244 245 246